| time (UTC) | temp F | wind direction | speed knots | gust knots | rain 1hr in | rain 24hr in | rain mn in | humidity % | barometer mb |
| 20260508031027 | 50 | 184 | 0.9 | 2.6 | 0.01 | 0.13 | 0.13 | 87 | 1014.9 |
| 20260508030527 | 50 | 252 | 0.9 | 3.5 | 0.00 | 0.12 | 0.12 | 86 | 1015.1 |
| 20260508030046 | 50 | 0 | 0.0 | 3.5 | 0.00 | 0.12 | 0.12 | 86 | 1015.0 |
| 20260508025526 | 50 | 247 | 1.7 | 3.5 | 0.00 | 0.12 | 0.12 | 86 | 1014.9 |
| 20260508025026 | 50 | 245 | 0.0 | 1.7 | 0.00 | 0.12 | 0.12 | 86 | 1014.7 |
| 20260508024536 | 51 | 0 | 0.0 | 0.0 | 0.00 | 0.12 | 0.12 | 86 | 1014.5 |
| 20260508024027 | 51 | 0 | 0.0 | 0.0 | 0.00 | 0.12 | 0.12 | 85 | 1014.5 |
| 20260508023527 | 51 | 0 | 0.0 | 1.7 | 0.00 | 0.12 | 0.12 | 84 | 1014.2 |
| 20260508023042 | 51 | 0 | 0.0 | 2.6 | 0.00 | 0.12 | 0.12 | 84 | 1014.3 |
| 20260508022526 | 51 | 330 | 0.0 | 4.3 | 0.00 | 0.12 | 0.12 | 84 | 1014.2 |
| 20260508022026 | 51 | 345 | 1.7 | 4.3 | 0.00 | 0.12 | 0.12 | 84 | 1014.0 |
| 20260508021542 | 51 | 39 | 1.7 | 3.5 | 0.00 | 0.12 | 0.12 | 84 | 1013.7 |
| 20260508021027 | 51 | 39 | 1.7 | 4.3 | 0.00 | 0.12 | 0.12 | 84 | 1013.5 |
| 20260508020526 | 51 | 0 | 0.9 | 4.3 | 0.00 | 0.12 | 0.12 | 84 | 1014.1 |
| 20260508020037 | 51 | 250 | 0.9 | 3.5 | 0.01 | 0.12 | 0.12 | 84 | 1014.0 |
| 20260508015527 | 51 | 233 | 0.0 | 1.7 | 0.01 | 0.12 | 0.12 | 84 | 1013.9 |
| 20260508015027 | 51 | 245 | 0.0 | 1.7 | 0.02 | 0.12 | 0.12 | 83 | 1013.8 |
| 20260508014537 | 51 | 0 | 0.0 | 0.9 | 0.03 | 0.12 | 0.12 | 83 | 1013.9 |
| 20260508014026 | 51 | 0 | 0.0 | 0.9 | 0.03 | 0.12 | 0.12 | 83 | 1013.8 |
| 20260508013526 | 52 | 0 | 0.0 | 1.7 | 0.04 | 0.12 | 0.12 | 83 | 1013.7 |
| 20260508013043 | 52 | 0 | 0.0 | 2.6 | 0.05 | 0.12 | 0.12 | 82 | 1013.5 |
| 20260508012526 | 52 | 335 | 0.9 | 2.6 | 0.05 | 0.12 | 0.12 | 81 | 1013.3 |
| 20260508012027 | 52 | 353 | 0.9 | 4.3 | 0.06 | 0.12 | 0.12 | 80 | 1013.2 |
| 20260508011536 | 52 | 348 | 0.9 | 4.3 | 0.06 | 0.12 | 0.12 | 80 | 1013.0 |
| 20260508011026 | 52 | 335 | 2.6 | 6.1 | 0.06 | 0.12 | 0.12 | 79 | 1012.9 |
| 20260508010526 | 52 | 349 | 1.7 | 6.1 | 0.05 | 0.11 | 0.11 | 78 | 1012.6 |
| 20260508010044 | 52 | 7 | 1.7 | 14.8 | 0.05 | 0.11 | 0.11 | 78 | 1012.7 |
| 20260508005526 | 53 | 359 | 5.2 | 23.5 | 0.04 | 0.10 | 0.10 | 74 | 1012.8 |
| 20260508005026 | 55 | 347 | 7.0 | 23.5 | 0.04 | 0.10 | 0.10 | 68 | 1012.2 |
| 20260508004539 | 50 | 359 | 7.8 | 15.6 | 0.03 | 0.09 | 0.09 | 78 | 1011.6 |
| 20260508004025 | 51 | 49 | 3.5 | 12.2 | 0.03 | 0.09 | 0.09 | 82 | 1013.4 |
| 20260508003531 | 51 | 340 | 6.1 | 13.0 | 0.02 | 0.08 | 0.08 | 80 | 1014.0 |
| 20260508003049 | 53 | 359 | 4.3 | 13.0 | 0.01 | 0.07 | 0.07 | 77 | 1014.1 |
| 20260508002529 | 55 | 321 | 6.1 | 13.0 | 0.01 | 0.07 | 0.07 | 73 | 1014.0 |
| 20260508002026 | 57 | 285 | 1.7 | 4.3 | 0.00 | 0.06 | 0.06 | 70 | 1013.5 |
| 20260508001537 | 57 | 249 | 1.7 | 7.0 | 0.00 | 0.06 | 0.06 | 68 | 1012.9 |
| 20260508001026 | 58 | 276 | 2.6 | 7.0 | 0.00 | 0.06 | 0.06 | 67 | 1012.8 |
| 20260508000526 | 58 | 230 | 2.6 | 7.0 | 0.00 | 0.06 | 0.06 | 65 | 1012.3 |
| 20260508000040 | 58 | 250 | 1.7 | 5.2 | 0.00 | 0.06 | 0.06 | 66 | 1012.1 |
| 20260507235527 | 58 | 237 | 1.7 | 7.0 | 0.00 | 0.06 | 0.06 | 67 | 1012.1 |
| 20260507235028 | 58 | 233 | 3.5 | 7.0 | 0.00 | 0.06 | 0.06 | 67 | 1012.0 |
| 20260507234540 | 58 | 246 | 2.6 | 6.1 | 0.00 | 0.06 | 0.06 | 67 | 1011.9 |
| 20260507234027 | 58 | 215 | 2.6 | 6.1 | 0.00 | 0.06 | 0.06 | 67 | 1012.1 |
| 20260507233526 | 58 | 210 | 1.7 | 6.1 | 0.00 | 0.06 | 0.06 | 67 | 1012.2 |
| 20260507233040 | 58 | 194 | 4.3 | 7.0 | 0.00 | 0.06 | 0.06 | 66 | 1012.1 |
| 20260507232526 | 58 | 221 | 3.5 | 7.0 | 0.00 | 0.06 | 0.06 | 66 | 1012.2 |
| 20260507232025 | 59 | 227 | 4.3 | 7.0 | 0.00 | 0.06 | 0.06 | 64 | 1012.1 |
| 20260507231545 | 59 | 214 | 4.3 | 8.7 | 0.00 | 0.06 | 0.06 | 65 | 1012.0 |
| 20260507231026 | 59 | 213 | 4.3 | 8.7 | 0.00 | 0.06 | 0.06 | 64 | 1012.2 |
| 20260507230527 | 60 | 220 | 3.5 | 7.8 | 0.00 | 0.06 | 0.06 | 62 | 1012.2 |
| 20260507230040 | 59 | 283 | 1.7 | 7.8 | 0.00 | 0.06 | 0.06 | 63 | 1012.2 |
| 20260507225527 | 58 | 243 | 1.7 | 4.3 | 0.00 | 0.06 | 0.06 | 67 | 1012.2 |
| 20260507225027 | 57 | 264 | 0.9 | 3.5 | 0.00 | 0.06 | 0.06 | 66 | 1012.4 |
| 20260507224556 | 57 | 266 | 1.7 | 5.2 | 0.00 | 0.06 | 0.06 | 66 | 1012.4 |
| 20260507224027 | 57 | 0 | 0.9 | 7.8 | 0.00 | 0.06 | 0.06 | 66 | 1012.5 |
| 20260507223527 | 58 | 329 | 3.5 | 8.7 | 0.00 | 0.06 | 0.06 | 64 | 1012.4 |
| 20260507223046 | 58 | 309 | 3.5 | 8.7 | 0.00 | 0.06 | 0.06 | 62 | 1012.4 |
| 20260507222526 | 58 | 1 | 0.9 | 6.1 | 0.00 | 0.06 | 0.06 | 66 | 1012.2 |
| 20260507222027 | 58 | 347 | 1.7 | 6.1 | 0.00 | 0.06 | 0.06 | 66 | 1012.4 |
| 20260507221539 | 58 | 359 | 0.9 | 5.2 | 0.00 | 0.06 | 0.06 | 68 | 1012.4 |
| 20260507221030 | 58 | 342 | 1.7 | 5.2 | 0.00 | 0.06 | 0.06 | 67 | 1012.4 |
| 20260507220527 | 58 | 319 | 2.6 | 5.2 | 0.00 | 0.06 | 0.06 | 68 | 1012.4 |
| 20260507220038 | 58 | 331 | 2.6 | 5.2 | 0.00 | 0.06 | 0.06 | 67 | 1012.6 |
| 20260507215527 | 59 | 315 | 0.9 | 3.5 | 0.00 | 0.06 | 0.06 | 66 | 1012.8 |
| 20260507215027 | 59 | 340 | 0.9 | 5.2 | 0.00 | 0.06 | 0.06 | 62 | 1012.9 |
| 20260507214539 | 59 | 325 | 0.9 | 6.1 | 0.00 | 0.06 | 0.06 | 61 | 1012.7 |
| 20260507214026 | 59 | 347 | 2.6 | 6.1 | 0.00 | 0.06 | 0.06 | 59 | 1012.7 |
| 20260507213529 | 59 | 336 | 1.7 | 5.2 | 0.00 | 0.06 | 0.06 | 59 | 1012.8 |
| 20260507213037 | 59 | 325 | 2.6 | 6.1 | 0.00 | 0.06 | 0.06 | 58 | 1012.8 |
| 20260507212527 | 59 | 348 | 2.6 | 7.8 | 0.00 | 0.06 | 0.06 | 60 | 1012.6 |
| 20260507212027 | 59 | 314 | 1.7 | 7.8 | 0.00 | 0.06 | 0.06 | 61 | 1012.7 |
| 20260507211539 | 59 | 33 | 3.5 | 7.8 | 0.00 | 0.06 | 0.06 | 63 | 1012.7 |
| 20260507211026 | 59 | 360 | 0.9 | 9.6 | 0.00 | 0.06 | 0.06 | 60 | 1012.6 |
| 20260507210527 | 59 | 11 | 1.7 | 11.3 | 0.00 | 0.06 | 0.06 | 59 | 1012.7 |
| 20260507210105 | 59 | 286 | 3.5 | 11.3 | 0.00 | 0.06 | 0.06 | 57 | 1012.8 |
| 20260507205527 | 59 | 330 | 5.2 | 11.3 | 0.00 | 0.06 | 0.06 | 59 | 1012.9 |
| 20260507205027 | 59 | 314 | 6.1 | 11.3 | 0.00 | 0.06 | 0.06 | 59 | 1012.9 |
| 20260507204537 | 59 | 316 | 5.2 | 13.0 | 0.00 | 0.06 | 0.06 | 60 | 1012.8 |
| 20260507204026 | 59 | 328 | 5.2 | 15.6 | 0.00 | 0.06 | 0.06 | 60 | 1013.0 |
| 20260507203527 | 60 | 1 | 7.8 | 15.6 | 0.00 | 0.06 | 0.06 | 58 | 1013.0 |
| 20260507203037 | 61 | 352 | 7.8 | 15.6 | 0.00 | 0.06 | 0.06 | 54 | 1013.0 |
| 20260507202526 | 62 | 326 | 8.7 | 15.6 | 0.00 | 0.06 | 0.06 | 56 | 1013.1 |
| 20260507202026 | 62 | 323 | 7.8 | 15.6 | 0.00 | 0.06 | 0.06 | 53 | 1012.8 |
| 20260507201537 | 62 | 354 | 7.0 | 15.6 | 0.00 | 0.06 | 0.06 | 54 | 1012.7 |
| 20260507201029 | 62 | 308 | 4.3 | 12.2 | 0.00 | 0.06 | 0.06 | 59 | 1012.4 |
| 20260507200526 | 61 | 335 | 5.2 | 12.2 | 0.00 | 0.06 | 0.06 | 65 | 1012.4 |
| 20260507200052 | 58 | 14 | 6.1 | 12.2 | 0.00 | 0.06 | 0.06 | 63 | 1012.4 |
| 20260507195527 | 58 | 338 | 3.5 | 9.6 | 0.00 | 0.06 | 0.06 | 65 | 1012.8 |
| 20260507195028 | 57 | 8 | 4.3 | 9.6 | 0.00 | 0.06 | 0.06 | 66 | 1012.9 |
| 20260507194538 | 57 | 44 | 4.3 | 8.7 | 0.00 | 0.06 | 0.06 | 67 | 1012.8 |
| 20260507194026 | 57 | 49 | 5.2 | 8.7 | 0.00 | 0.06 | 0.06 | 66 | 1013.3 |
| 20260507193528 | 57 | 32 | 4.3 | 8.7 | 0.00 | 0.06 | 0.06 | 68 | 1013.2 |
| 20260507193102 | 56 | 72 | 3.5 | 8.7 | 0.00 | 0.06 | 0.06 | 70 | 1013.1 |
| 20260507192524 | 56 | 39 | 3.5 | 7.8 | 0.00 | 0.06 | 0.06 | 69 | 1013.3 |
| 20260507192025 | 56 | 325 | 1.7 | 7.8 | 0.00 | 0.06 | 0.06 | 69 | 1013.5 |
| 20260507191537 | 56 | 32 | 3.5 | 8.7 | 0.00 | 0.06 | 0.06 | 67 | 1013.6 |
| 20260507191027 | 56 | 54 | 2.6 | 9.6 | 0.00 | 0.06 | 0.06 | 68 | 1013.4 |
| 20260507190527 | 56 | 31 | 4.3 | 9.6 | 0.00 | 0.06 | 0.06 | 68 | 1013.3 |
| 20260507190039 | 57 | 32 | 3.5 | 9.6 | 0.00 | 0.06 | 0.06 | 67 | 1013.3 |
| 20260507185528 | 56 | 39 | 5.2 | 10.4 | 0.00 | 0.06 | 0.06 | 67 | 1013.3 |
| 20260507185028 | 57 | 10 | 5.2 | 10.4 | 0.00 | 0.06 | 0.06 | 69 | 1013.4 |
| 20260507184540 | 56 | 56 | 4.3 | 8.7 | 0.00 | 0.06 | 0.06 | 68 | 1013.5 |
| 20260507184026 | 56 | 39 | 4.3 | 8.7 | 0.00 | 0.06 | 0.06 | 68 | 1013.8 |
| 20260507183530 | 56 | 44 | 3.5 | 7.0 | 0.00 | 0.06 | 0.06 | 65 | 1013.6 |
| 20260507183040 | 56 | 108 | 3.5 | 8.7 | 0.00 | 0.06 | 0.06 | 66 | 1013.6 |
| 20260507182527 | 56 | 21 | 4.3 | 8.7 | 0.00 | 0.06 | 0.06 | 66 | 1013.6 |
| 20260507182026 | 57 | 37 | 5.2 | 10.4 | 0.00 | 0.06 | 0.06 | 66 | 1013.6 |
| 20260507181536 | 56 | 82 | 3.5 | 10.4 | 0.00 | 0.06 | 0.06 | 65 | 1013.6 |
| 20260507181028 | 56 | 354 | 4.3 | 8.7 | 0.00 | 0.06 | 0.06 | 68 | 1013.5 |
| 20260507180526 | 56 | 96 | 4.3 | 8.7 | 0.00 | 0.06 | 0.06 | 71 | 1013.5 |
| 20260507180037 | 56 | 28 | 4.3 | 7.0 | 0.00 | 0.06 | 0.06 | 73 | 1013.5 |
| 20260507175526 | 55 | 86 | 3.5 | 8.7 | 0.00 | 0.06 | 0.06 | 72 | 1013.5 |
| 20260507175028 | 55 | 68 | 3.5 | 8.7 | 0.00 | 0.06 | 0.06 | 76 | 1013.5 |
| 20260507174536 | 56 | 35 | 3.5 | 8.7 | 0.00 | 0.06 | 0.06 | 74 | 1013.7 |
| 20260507174025 | 55 | 51 | 5.2 | 8.7 | 0.00 | 0.06 | 0.06 | 74 | 1013.6 |
| 20260507173526 | 56 | 35 | 3.5 | 8.7 | 0.00 | 0.06 | 0.06 | 75 | 1013.6 |
| 20260507173047 | 55 | 83 | 4.3 | 7.8 | 0.00 | 0.06 | 0.06 | 75 | 1013.6 |
| 20260507172542 | 55 | 27 | 3.5 | 7.8 | 0.00 | 0.06 | 0.06 | 74 | 1013.7 |
| 20260507172025 | 54 | 21 | 3.5 | 7.8 | 0.00 | 0.06 | 0.06 | 76 | 1013.7 |
| 20260507171538 | 54 | 34 | 3.5 | 7.8 | 0.00 | 0.06 | 0.06 | 77 | 1013.8 |
| 20260507171027 | 54 | 60 | 4.3 | 7.8 | 0.00 | 0.06 | 0.06 | 76 | 1013.7 |
| 20260507170527 | 53 | 20 | 4.3 | 10.4 | 0.00 | 0.06 | 0.06 | 77 | 1013.9 |
| 20260507170038 | 53 | 70 | 3.5 | 10.4 | 0.00 | 0.06 | 0.06 | 76 | 1013.9 |
| 20260507165526 | 53 | 61 | 5.2 | 9.6 | 0.00 | 0.06 | 0.06 | 75 | 1013.8 |
| 20260507165029 | 54 | 8 | 4.3 | 7.8 | 0.00 | 0.06 | 0.06 | 76 | 1013.9 |
| 20260507164538 | 53 | 83 | 3.5 | 7.8 | 0.00 | 0.06 | 0.06 | 76 | 1013.9 |
| 20260507164029 | 53 | 37 | 3.5 | 7.8 | 0.00 | 0.06 | 0.06 | 76 | 1014.0 |
| 20260507163526 | 52 | 1 | 3.5 | 7.0 | 0.00 | 0.06 | 0.06 | 79 | 1013.9 |
| 20260507163043 | 51 | 16 | 2.6 | 7.0 | 0.00 | 0.06 | 0.06 | 79 | 1014.0 |
| 20260507162525 | 51 | 101 | 3.5 | 7.0 | 0.00 | 0.06 | 0.06 | 80 | 1013.9 |
| 20260507162027 | 51 | 350 | 2.6 | 7.0 | 0.00 | 0.06 | 0.06 | 81 | 1014.0 |
| 20260507161551 | 50 | 1 | 3.5 | 7.0 | 0.00 | 0.06 | 0.06 | 79 | 1014.0 |
| 20260507161025 | 50 | 26 | 2.6 | 7.0 | 0.00 | 0.06 | 0.06 | 81 | 1014.2 |
| 20260507160525 | 50 | 19 | 3.5 | 7.8 | 0.00 | 0.06 | 0.06 | 81 | 1014.2 |
| 20260507160057 | 50 | 54 | 3.5 | 8.7 | 0.00 | 0.06 | 0.06 | 81 | 1014.0 |
| 20260507155528 | 50 | 37 | 4.3 | 8.7 | 0.00 | 0.06 | 0.06 | 82 | 1013.9 |
| 20260507155025 | 50 | 86 | 2.6 | 8.7 | 0.00 | 0.06 | 0.06 | 83 | 1013.9 |
| 20260507154537 | 49 | 71 | 3.5 | 8.7 | 0.00 | 0.06 | 0.06 | 83 | 1013.9 |
| 20260507154024 | 50 | 33 | 4.3 | 8.7 | 0.00 | 0.06 | 0.06 | 84 | 1013.9 |
| 20260507153524 | 50 | 32 | 3.5 | 7.0 | 0.00 | 0.06 | 0.06 | 83 | 1013.9 |
| 20260507153036 | 49 | 76 | 3.5 | 7.8 | 0.00 | 0.06 | 0.06 | 83 | 1013.7 |
| 20260507152523 | 49 | 98 | 4.3 | 7.8 | 0.00 | 0.06 | 0.06 | 82 | 1013.6 |
| 20260507152026 | 49 | 85 | 3.5 | 7.0 | 0.00 | 0.06 | 0.06 | 83 | 1013.6 |
| 20260507151536 | 49 | 74 | 2.6 | 6.1 | 0.00 | 0.06 | 0.06 | 85 | 1013.7 |
| 20260507151024 | 48 | 90 | 3.5 | 6.1 | 0.00 | 0.06 | 0.06 | 86 | 1013.6 |
| 20260507150524 | 48 | 91 | 3.5 | 5.2 | 0.00 | 0.06 | 0.06 | 87 | 1013.8 |
| 20260507150040 | 48 | 45 | 2.6 | 5.2 | 0.00 | 0.06 | 0.06 | 86 | 1014.0 |
| 20260507145523 | 48 | 44 | 2.6 | 5.2 | 0.00 | 0.06 | 0.06 | 86 | 1014.1 |
| 20260507145029 | 48 | 69 | 2.6 | 5.2 | 0.00 | 0.06 | 0.06 | 86 | 1014.0 |
| 20260507144548 | 48 | 70 | 1.7 | 5.2 | 0.00 | 0.06 | 0.06 | 85 | 1014.2 |
| 20260507144027 | 48 | 22 | 1.7 | 4.3 | 0.00 | 0.06 | 0.06 | 85 | 1014.2 |
| 20260507143524 | 48 | 61 | 1.7 | 3.5 | 0.00 | 0.06 | 0.06 | 85 | 1014.0 |
| 20260507143036 | 47 | 120 | 1.7 | 3.5 | 0.01 | 0.06 | 0.06 | 86 | 1014.0 |
| 20260507142525 | 47 | 60 | 1.7 | 3.5 | 0.01 | 0.06 | 0.06 | 86 | 1014.0 |
| 20260507142024 | 47 | 82 | 1.7 | 3.5 | 0.02 | 0.06 | 0.06 | 87 | 1013.9 |
| 20260507141544 | 47 | 0 | 0.0 | 4.3 | 0.02 | 0.06 | 0.06 | 88 | 1013.8 |
| 20260507141026 | 46 | 46 | 1.7 | 4.3 | 0.02 | 0.06 | 0.06 | 88 | 1013.7 |
| 20260507140524 | 46 | 43 | 2.6 | 5.2 | 0.02 | 0.06 | 0.06 | 88 | 1013.7 |
| 20260507140041 | 46 | 0 | 0.0 | 6.1 | 0.02 | 0.06 | 0.06 | 88 | 1013.6 |
| 20260507135524 | 46 | 126 | 1.7 | 6.1 | 0.02 | 0.06 | 0.06 | 89 | 1013.1 |
| 20260507135025 | 46 | 165 | 2.6 | 6.1 | 0.02 | 0.06 | 0.06 | 89 | 1013.2 |
| 20260507134537 | 46 | 188 | 1.7 | 4.3 | 0.02 | 0.06 | 0.06 | 89 | 1013.4 |
| 20260507134026 | 46 | 127 | 1.7 | 7.0 | 0.02 | 0.06 | 0.06 | 89 | 1013.4 |
| 20260507133525 | 46 | 133 | 2.6 | 7.0 | 0.02 | 0.06 | 0.06 | 89 | 1013.1 |
| 20260507133038 | 46 | 203 | 2.6 | 5.2 | 0.01 | 0.05 | 0.05 | 90 | 1013.1 |
| 20260507132524 | 46 | 185 | 2.6 | 5.2 | 0.01 | 0.05 | 0.05 | 90 | 1013.1 |
| 20260507132024 | 46 | 140 | 1.7 | 4.3 | 0.00 | 0.04 | 0.04 | 90 | 1013.2 |
| 20260507131537 | 46 | 0 | 0.9 | 3.5 | 0.00 | 0.04 | 0.04 | 90 | 1013.3 |
| 20260507131024 | 46 | 154 | 1.7 | 3.5 | 0.00 | 0.04 | 0.04 | 90 | 1013.3 |
| 20260507130526 | 46 | 195 | 0.9 | 2.6 | 0.00 | 0.04 | 0.04 | 90 | 1013.7 |
| 20260507130041 | 46 | 193 | 0.9 | 2.6 | 0.00 | 0.04 | 0.04 | 90 | 1013.7 |
| 20260507125523 | 46 | 0 | 0.0 | 5.2 | 0.00 | 0.04 | 0.04 | 90 | 1013.7 |
| 20260507125026 | 46 | 328 | 0.9 | 5.2 | 0.00 | 0.04 | 0.04 | 90 | 1013.7 |
| 20260507124540 | 46 | 359 | 2.6 | 4.3 | 0.00 | 0.04 | 0.04 | 90 | 1013.7 |
| 20260507124023 | 46 | 0 | 0.0 | 0.0 | 0.00 | 0.04 | 0.04 | 90 | 1013.3 |
| 20260507123524 | 46 | 0 | 0.0 | 0.0 | 0.01 | 0.04 | 0.04 | 90 | 1013.1 |
| 20260507123043 | 46 | 0 | 0.0 | 1.7 | 0.01 | 0.04 | 0.04 | 89 | 1013.0 |
| 20260507122525 | 46 | 0 | 0.0 | 4.3 | 0.01 | 0.04 | 0.04 | 90 | 1012.8 |
| 20260507122026 | 46 | 138 | 0.0 | 4.3 | 0.01 | 0.04 | 0.04 | 89 | 1012.7 |
| 20260507121538 | 46 | 169 | 1.7 | 4.3 | 0.01 | 0.04 | 0.04 | 89 | 1012.5 |
| 20260507121024 | 46 | 163 | 0.9 | 4.3 | 0.01 | 0.04 | 0.04 | 90 | 1012.6 |
| 20260507120523 | 46 | 226 | 1.7 | 4.3 | 0.01 | 0.04 | 0.04 | 90 | 1012.7 |
| 20260507120043 | 46 | 200 | 1.7 | 4.3 | 0.01 | 0.04 | 0.04 | 89 | 1012.6 |
| 20260507115523 | 46 | 210 | 1.7 | 3.5 | 0.01 | 0.04 | 0.04 | 89 | 1012.5 |
| 20260507115023 | 46 | 176 | 1.7 | 3.5 | 0.01 | 0.04 | 0.04 | 89 | 1012.4 |
| 20260507114545 | 46 | 245 | 0.9 | 2.6 | 0.01 | 0.04 | 0.04 | 89 | 1012.6 |
| 20260507114023 | 46 | 0 | 0.9 | 2.6 | 0.01 | 0.04 | 0.04 | 89 | 1012.6 |
| 20260507113523 | 46 | 188 | 0.9 | 2.6 | 0.00 | 0.03 | 0.03 | 89 | 1012.7 |
| 20260507113038 | 46 | 81 | 0.9 | 2.6 | 0.00 | 0.03 | 0.03 | 88 | 1013.1 |
| 20260507112524 | 46 | 0 | 0.0 | 3.5 | 0.00 | 0.03 | 0.03 | 88 | 1012.8 |
| 20260507112024 | 46 | 191 | 0.9 | 3.5 | 0.00 | 0.03 | 0.03 | 88 | 1012.7 |
| 20260507111545 | 46 | 223 | 1.7 | 3.5 | 0.01 | 0.03 | 0.03 | 88 | 1012.8 |
| 20260507111023 | 46 | 172 | 0.9 | 5.2 | 0.01 | 0.03 | 0.03 | 88 | 1012.7 |
| 20260507110523 | 46 | 0 | 1.7 | 5.2 | 0.02 | 0.03 | 0.03 | 88 | 1012.8 |
| 20260507110044 | 46 | 212 | 0.0 | 3.5 | 0.02 | 0.03 | 0.03 | 88 | 1012.9 |
| 20260507105525 | 46 | 0 | 0.9 | 4.3 | 0.03 | 0.03 | 0.03 | 88 | 1012.8 |
| 20260507105023 | 46 | 216 | 1.7 | 4.3 | 0.03 | 0.03 | 0.03 | 87 | 1012.8 |
| 20260507104544 | 47 | 222 | 0.0 | 3.5 | 0.03 | 0.03 | 0.03 | 87 | 1012.5 |
| 20260507104023 | 47 | 224 | 1.7 | 3.5 | 0.03 | 0.03 | 0.03 | 86 | 1012.8 |
| 20260507103526 | 47 | 0 | 0.0 | 3.5 | 0.03 | 0.03 | 0.03 | 85 | 1012.8 |
| 20260507103040 | 47 | 250 | 1.7 | 3.5 | 0.03 | 0.03 | 0.03 | 85 | 1013.3 |
| 20260507102525 | 47 | 203 | 0.9 | 6.1 | 0.03 | 0.03 | 0.03 | 85 | 1013.1 |
| 20260507102026 | 47 | 134 | 1.7 | 6.1 | 0.03 | 0.03 | 0.03 | 84 | 1013.0 |
| 20260507101543 | 47 | 68 | 2.6 | 6.1 | 0.02 | 0.02 | 0.02 | 84 | 1012.9 |
| 20260507101027 | 48 | 76 | 1.7 | 4.3 | 0.02 | 0.02 | 0.02 | 83 | 1013.0 |
| 20260507100525 | 48 | 50 | 1.7 | 2.6 | 0.01 | 0.01 | 0.01 | 81 | 1013.0 |
| 20260507100037 | 48 | 84 | 0.9 | 3.5 | 0.00 | 0.00 | 0.00 | 80 | 1013.0 |
| 20260507095524 | 48 | 45 | 0.9 | 7.8 | 0.00 | 0.00 | 0.00 | 79 | 1013.1 |
| 20260507095029 | 48 | 342 | 2.6 | 8.7 | 0.00 | 0.00 | 0.00 | 78 | 1013.3 |
| 20260507094541 | 49 | 300 | 3.5 | 8.7 | 0.00 | 0.00 | 0.00 | 78 | 1013.2 |
| 20260507094027 | 49 | 360 | 3.5 | 8.7 | 0.00 | 0.00 | 0.00 | 76 | 1013.2 |
| 20260507093523 | 49 | 359 | 3.5 | 12.2 | 0.00 | 0.00 | 0.00 | 75 | 1013.1 |
| 20260507093043 | 50 | 343 | 6.1 | 13.9 | 0.00 | 0.00 | 0.00 | 73 | 1013.3 |
| 20260507092523 | 50 | 343 | 7.0 | 15.6 | 0.00 | 0.00 | 0.00 | 72 | 1013.4 |
| 20260507092023 | 50 | 352 | 7.0 | 15.6 | 0.00 | 0.00 | 0.00 | 71 | 1013.3 |
| 20260507091540 | 50 | 350 | 7.0 | 13.9 | 0.00 | 0.00 | 0.00 | 69 | 1013.2 |
| 20260507091023 | 50 | 312 | 4.3 | 12.2 | 0.00 | 0.00 | 0.00 | 70 | 1013.0 |
| 20260507090525 | 50 | 333 | 4.3 | 12.2 | 0.00 | 0.00 | 0.00 | 70 | 1012.9 |
| 20260507090038 | 51 | 311 | 5.2 | 13.0 | 0.00 | 0.00 | 0.00 | 69 | 1012.9 |
| 20260507085527 | 51 | 316 | 6.1 | 13.0 | 0.00 | 0.00 | 0.00 | 68 | 1012.8 |
| 20260507085024 | 50 | 296 | 5.2 | 13.0 | 0.00 | 0.00 | 0.00 | 68 | 1012.6 |
| 20260507084541 | 49 | 315 | 2.6 | 8.7 | 0.00 | 0.00 | 0.00 | 65 | 1012.5 |
| 20260507084028 | 49 | 341 | 2.6 | 5.2 | 0.00 | 0.00 | 0.00 | 56 | 1012.7 |
| 20260507083526 | 48 | 358 | 0.9 | 5.2 | 0.00 | 0.00 | 0.00 | 52 | 1012.7 |
| 20260507083039 | 49 | 313 | 1.7 | 5.2 | 0.00 | 0.00 | 0.00 | 55 | 1013.0 |
| 20260507082524 | 49 | 335 | 0.9 | 7.8 | 0.00 | 0.00 | 0.00 | 54 | 1013.0 |
| 20260507082023 | 48 | 0 | 2.6 | 7.8 | 0.00 | 0.00 | 0.00 | 51 | 1012.9 |
| 20260507081538 | 48 | 349 | 2.6 | 7.0 | 0.00 | 0.00 | 0.00 | 50 | 1012.8 |
| 20260507081025 | 48 | 344 | 1.7 | 7.0 | 0.00 | 0.00 | 0.00 | 55 | 1012.7 |
| 20260507080526 | 48 | 146 | 0.9 | 2.6 | 0.00 | 0.00 | 0.00 | 52 | 1012.4 |
| 20260507080040 | 48 | 319 | 0.9 | 1.7 | 0.00 | 0.00 | 0.00 | 44 | 1012.5 |
| 20260507075525 | 48 | 319 | 0.9 | 3.5 | 0.00 | 0.00 | 0.00 | 42 | 1012.3 |
| 20260507075025 | 48 | 319 | 0.9 | 3.5 | 0.00 | 0.00 | 0.00 | 42 | 1012.3 |
| 20260507074539 | 49 | 351 | 1.7 | 3.5 | 0.00 | 0.00 | 0.00 | 40 | 1012.1 |
| 20260507074023 | 50 | 0 | 0.0 | 2.6 | 0.00 | 0.00 | 0.00 | 38 | 1011.7 |
| 20260507073525 | 50 | 61 | 0.9 | 3.5 | 0.00 | 0.00 | 0.00 | 36 | 1011.6 |
| 20260507073039 | 50 | 0 | 0.9 | 4.3 | 0.00 | 0.00 | 0.00 | 34 | 1011.8 |
| 20260507072523 | 50 | 98 | 1.7 | 6.1 | 0.00 | 0.00 | 0.00 | 34 | 1011.8 |
| 20260507072022 | 49 | 157 | 1.7 | 6.1 | 0.00 | 0.00 | 0.00 | 38 | 1011.8 |
| 20260507071536 | 49 | 169 | 1.7 | 6.1 | 0.00 | 0.00 | 0.00 | 36 | 1011.9 |
| 20260507071025 | 49 | 0 | 0.0 | 1.7 | 0.00 | 0.00 | 0.00 | 39 | 1011.9 |
| 20260507070523 | 49 | 0 | 0.0 | 2.6 | 0.00 | 0.00 | 0.00 | 39 | 1012.1 |
| 20260507070037 | 49 | 281 | 0.9 | 3.5 | 0.00 | 0.00 | 0.00 | 38 | 1012.1 |
| 20260507065523 | 50 | 334 | 1.7 | 3.5 | 0.00 | 0.00 | 0.00 | 38 | 1012.0 |
| 20260507065024 | 51 | 336 | 1.7 | 3.5 | 0.00 | 0.00 | 0.00 | 38 | 1011.9 |
| 20260507064550 | 51 | 0 | 0.0 | 1.7 | 0.00 | 0.00 | 0.00 | 34 | 1011.6 |
| 20260507064023 | 52 | 202 | 0.0 | 5.2 | 0.00 | 0.00 | 0.00 | 34 | 1011.5 |
| 20260507063523 | 52 | 201 | 0.9 | 5.2 | 0.00 | 0.00 | 0.00 | 32 | 1011.3 |
| 20260507063037 | 52 | 210 | 0.9 | 5.2 | 0.00 | 0.00 | 0.00 | 32 | 1011.3 |
| 20260507062523 | 52 | 215 | 1.7 | 5.2 | 0.00 | 0.00 | 0.00 | 32 | 1011.2 |
| 20260507062026 | 52 | 162 | 1.7 | 4.3 | 0.00 | 0.00 | 0.00 | 32 | 1011.1 |
| 20260507061538 | 52 | 174 | 0.9 | 7.0 | 0.00 | 0.00 | 0.00 | 32 | 1011.1 |
| 20260507061023 | 52 | 149 | 2.6 | 7.0 | 0.00 | 0.00 | 0.00 | 32 | 1011.2 |
| 20260507060525 | 52 | 196 | 1.7 | 11.3 | 0.00 | 0.00 | 0.00 | 32 | 1011.2 |
| 20260507060037 | 52 | 214 | 2.6 | 11.3 | 0.00 | 0.00 | 0.00 | 31 | 1011.5 |
| 20260507055524 | 52 | 117 | 4.3 | 11.3 | 0.00 | 0.00 | 0.00 | 30 | 1011.4 |
| 20260507055024 | 52 | 169 | 2.6 | 6.1 | 0.00 | 0.00 | 0.00 | 31 | 1011.5 |
| 20260507054540 | 51 | 183 | 2.6 | 6.1 | 0.00 | 0.00 | 0.00 | 32 | 1011.6 |
| 20260507054027 | 52 | 156 | 2.6 | 6.1 | 0.00 | 0.00 | 0.00 | 32 | 1011.9 |
| 20260507053523 | 51 | 134 | 3.5 | 6.1 | 0.00 | 0.00 | 0.00 | 30 | 1012.1 |
| 20260507053044 | 51 | 154 | 2.6 | 4.3 | 0.00 | 0.00 | 0.00 | 32 | 1012.5 |
| 20260507052523 | 50 | 139 | 1.7 | 4.3 | 0.00 | 0.00 | 0.00 | 32 | 1012.8 |
| 20260507052023 | 50 | 341 | 1.7 | 3.5 | 0.00 | 0.00 | 0.00 | 37 | 1012.8 |
| 20260507051538 | 50 | 305 | 0.0 | 4.3 | 0.00 | 0.00 | 0.00 | 35 | 1012.7 |
| 20260507051022 | 50 | 0 | 0.9 | 6.1 | 0.00 | 0.00 | 0.00 | 35 | 1012.6 |
| 20260507050523 | 50 | 25 | 2.6 | 6.1 | 0.00 | 0.00 | 0.00 | 36 | 1012.1 |
| 20260507050040 | 50 | 25 | 2.6 | 4.3 | 0.00 | 0.00 | 0.00 | 36 | 1011.9 |
| 20260507045527 | 51 | 24 | 0.9 | 4.3 | 0.00 | 0.00 | 0.00 | 34 | 1011.9 |
| 20260507045027 | 51 | 53 | 1.7 | 4.3 | 0.00 | 0.00 | 0.00 | 32 | 1011.9 |
| 20260507044537 | 52 | 31 | 1.7 | 4.3 | 0.00 | 0.00 | 0.00 | 30 | 1012.0 |
| 20260507044026 | 52 | 68 | 1.7 | 4.3 | 0.00 | 0.00 | 0.00 | 29 | 1012.0 |
| 20260507043524 | 52 | 87 | 0.9 | 3.5 | 0.00 | 0.00 | 0.00 | 29 | 1011.9 |
| 20260507043038 | 52 | 79 | 0.9 | 3.5 | 0.00 | 0.00 | 0.00 | 31 | 1012.0 |
| 20260507042525 | 52 | 144 | 0.9 | 3.5 | 0.00 | 0.00 | 0.00 | 29 | 1011.9 |
| 20260507042025 | 52 | 138 | 0.9 | 4.3 | 0.00 | 0.00 | 0.00 | 29 | 1011.8 |
| 20260507041549 | 52 | 114 | 1.7 | 4.3 | 0.00 | 0.00 | 0.00 | 29 | 1011.8 |
| 20260507041023 | 52 | 232 | 0.0 | 1.7 | 0.00 | 0.00 | 0.00 | 29 | 1012.0 |
| 20260507040527 | 52 | 231 | 0.9 | 3.5 | 0.00 | 0.00 | 0.00 | 29 | 1012.2 |
| 20260507040039 | 52 | 231 | 0.9 | 3.5 | 0.00 | 0.00 | 0.00 | 29 | 1011.9 |
| 20260507035524 | 52 | 193 | 0.9 | 2.6 | 0.00 | 0.00 | 0.00 | 29 | 1011.8 |
| 20260507035023 | 52 | 130 | 0.9 | 3.5 | 0.00 | 0.00 | 0.00 | 29 | 1012.0 |
| 20260507034538 | 52 | 119 | 0.9 | 3.5 | 0.00 | 0.00 | 0.00 | 28 | 1012.2 |
| 20260507034023 | 52 | 115 | 1.7 | 4.3 | 0.00 | 0.00 | 0.00 | 30 | 1012.0 |
| 20260507033531 | 52 | 172 | 1.7 | 4.3 | 0.00 | 0.00 | 0.00 | 29 | 1012.1 |
| 20260507033037 | 52 | 146 | 0.9 | 3.5 | 0.00 | 0.00 | 0.00 | 30 | 1012.1 |
| 20260507032526 | 52 | 34 | 0.0 | 4.3 | 0.00 | 0.00 | 0.00 | 31 | 1012.3 |
| 20260507032023 | 52 | 0 | 0.0 | 4.3 | 0.00 | 0.00 | 0.00 | 29 | 1012.1 |
| 20260507031543 | 52 | 41 | 1.7 | 4.3 | 0.00 | 0.00 | 0.00 | 29 | 1011.9 |